Regional Weather Roundup
Issued by NWS Wakefield, VA

Home | Current Version | Previous Version | Text Only | Print | Product List | Glossary Off
Versions: 1 2 3 4 5 6 7 8 9 10 11 12 13 14 15 16 17 18 19 20 21 22 23 24 25 26 27 28 29 30 31 32 33 34 35 36 37 38 39 40 41 42 43 44 45 46 47 48 49 50

000
ASUS41 KAKQ 042210
RWRAKQ

REGIONAL WEATHER ROUNDUP
NATIONAL WEATHER SERVICE WAKEFIELD VA
500 PM EST WED MAR 04 2015

Note: "fair" indicates few or no clouds below 12,000 feet with no
significant weather and/or obstructions to visibility. * = Denotes
station may not report precipitation (e.g., rain,snow,etc.),
thunder or fog.

VAZ042-051-052>054-056-042300-
NORTHERN VIRGINIA

CITY           SKY/WX    TMP DP  RH WIND       PRES   REMARKS
WASH NATIONAL  NOT AVBL
DULLES         NOT AVBL
FORT BELVOIR   NOT AVBL
QUANTICO       FOG       44  41  89 SW5       29.89R VSB 1
FREDERICKSBRG* NOT AVBL
STAFFORD*      NOT AVBL
WARRENTON      NOT AVBL
CULPEPER*      NOT AVBL
MANASSAS*      NOT AVBL
LEESBURG*      NOT AVBL
WINCHESTER     NOT AVBL
FRONT ROYAL*   NOT AVBL
LURAY*         NOT AVBL
$$

VAZ048-049-060>072-079>083-042300-
CENTRAL AND SOUTH CENTRAL VIRGINIA

CITY           SKY/WX    TMP DP  RH WIND       PRES   REMARKS
RICHMOND       NOT AVBL
CHESTERFIELD*  NOT AVBL
PETERSBURG*    NOT AVBL
HANOVER        NOT AVBL
TAPPAHANNOCK*  NOT AVBL
QUINTON*       NOT AVBL
CHARLOTTSVILLE NOT AVBL
GORDONSVILLE*  NOT AVBL
ORANGE*        NOT AVBL
LOUISA*        NOT AVBL
BUMPASS*       NOT AVBL
FARMVILLE*     NOT AVBL
CREWE*         NOT AVBL
FORT PICKETT*  NOT AVBL
CHASE CITY*    NOT AVBL
CLARKSVILLE*   NOT AVBL
SOUTH HILL*    NOT AVBL
LAWRENCEVILLE* NOT AVBL
EMPORIA*       NOT AVBL
$$

VAZ088>098-042300-
SOUTHEAST VIRGINIA

CITY           SKY/WX    TMP DP  RH WIND       PRES   REMARKS
NORFOLK        NOT AVBL
VIRGINIA BEACH PTSUNNY   73  60  63 W8        29.85F
NORFOLK NAVAL  PTSUNNY   61  51  70 N8        29.87F
WEST POINT*    NOT AVBL
SALUDA*        NOT AVBL
NEWPORT NEWS   NOT AVBL
LANGLEY AFB    NOT AVBL
FORT EUSTIS    NOT AVBL
WILLIAMSBURG*  NOT AVBL
HR EXEC AP*    NOT AVBL
FRANKLIN*      NOT AVBL
WAKEFIELD      NOT AVBL
$$

VAZ020-022-025-037-045-042300-
WEST CENTRAL AND SOUTHWEST VIRGINIA

CITY           SKY/WX    TMP DP  RH WIND       PRES   REMARKS
STAUNTON*      NOT AVBL
WAYNESBORO*    NOT AVBL
HOT SPRINGS VA NOT AVBL
LYNCHBURG      NOT AVBL
DANVILLE       NOT AVBL
SOUTH BOSTON*  NOT AVBL
MARTINSVILLE   NOT AVBL
ROANOKE        NOT AVBL
BLACKSBURG     NOT AVBL
DUBLIN*        NOT AVBL
MARION*        NOT AVBL
HILLSVILLE*    NOT AVBL
RICHLANDS*     NOT AVBL
WISE*          NOT AVBL
ABINGDON*      NOT AVBL
$$

MDZ021>025-VAZ099-100-042300-
SOUTHERN MARYLAND AND THE DELMARVA PENINSULA

CITY           SKY/WX    TMP DP  RH WIND       PRES   REMARKS
PATUXENT RIVER CLOUDY    48  46  93 NW6       29.90R FOG
BAY BRIDGE APT NOT AVBL
LEONARDTOWN    NOT AVBL
DOVER          NOT AVBL
GEORGETOWN     NOT AVBL
EASTON         NOT AVBL
CAMBRIDGE      NOT AVBL
SALISBURY      NOT AVBL
OCEAN CITY     NOT AVBL
WALLOPS ISLAND NOT AVBL
ACCOMACK*      NOT AVBL
$$

NCZ012>017-030>032-042300-
NORTH CENTRAL AND EASTERN NORTH CAROLINA

CITY           SKY/WX    TMP DP  RH WIND       PRES   REMARKS
ROANOKE RAPIDS NOT AVBL
RALEIGH        NOT AVBL
ELIZABETH CITY NOT AVBL
AHOSKIE*       NOT AVBL
EDENTON*       NOT AVBL
CURRITUCK*     NOT AVBL
KILL DEVIL HLS NOT AVBL
MANTEO         NOT AVBL
CAPE HATTERAS  NOT AVBL
TARBORO*       NOT AVBL
GOLDSBORO      NOT AVBL
WASHINGTON     NOT AVBL
GREENVILLE     NOT AVBL
NEW BERN       NOT AVBL
WILMINGTON     NOT AVBL
$$

VAZ048-042300-
ELSEWHERE

CITY           SKY/WX    TMP DP  RH WIND       PRES   REMARKS
HARRISBURG PA  NOT AVBL
BALTIMORE      NOT AVBL
ANNAPOLIS      LGT RAIN  38  37  97 CALM      29.90R VSB 1/4
ANDREWS AFB    NOT AVBL
PHILADELPHIA   NOT AVBL
GREENSBORO     NOT AVBL
ROCKY MOUNT    NOT AVBL
$$

VAZ100-042300-
MARINE

STATION/POSITION TIME  TEMP    WIND        PRES    WAVE   SWELL
                       AIR SEA DIR/SP/G            HT/PER HT/PER
                 (UTC) (F)     (DEG/KT/KT) (MB)    (FT/S) (FT/S)
BRANDYWINE LGT   2100   45 31  330/  6/ 12 1012.4R
CAPE MAY NJ      2100   45 34  350/  3/  4 1012.0S
LEWES DE         2100   49 31   20/  2/  2 1011.8R
15NM E FENWICK I 2100   38 36              1011.9F   5/ 8
OCEAN-CITY-INLET 2100   38 36  200/ 10/ 12 1011.9F
WACHAPREAGUE VA  2100   57 40  220/  5/  7 1012.4F
THOMAS POINT MD  2100   36 32  240/  1/  2 1013.2R
COVE POINT MD    2100   46     330/  6/  7 1012.1R
SOLOMONS ISLAND  2100      34                N/A
BISHOPS HEAD MD  2100   37 34  150/  8/ 10 1011.5R
CAMBRIDGE MD     2100   42 32  290/  2/  3 1012.4R
LEWISETTA VA     2100   53 34     CALM     1011.6S
RAPPAHANNOCK LGT 2100          170/  8/  8 1012.9F
STINGRAY PT      2100   39     110/  2/  4   N/A
YORK RVR RNG VA  2100   52      50/  4/  5 1011.2F
YORKTOWN VA      2100   45 36   90/  4/  6 1011.4F
DOMINION TERM VA 2100   58     120/  5/  7 1011.3F
KIPTOPEKE VA     2100      40   CALM  /  2   N/A
CHES BAY BRIDGE  2100   44 34   70/ 12/ 13 1011.3F
CAPE HENRY VA    2100   49     100/  9/ 11 1010.3F
CHESAPEAKE LGHT  2100   49     150/  3/  4 1012.8F
WILLOUBY STN VA  2100   48     100/ 13/ 13 1011.8F
S CRANEY ISL VA  2100          210/  9/ 12 1011.1F
CAPE HENRY BUOY  2100      37                N/A     3/ 8   2/11
1ST LANDING BUOY 2100   42     100/ 10/ 14 1011.3F
OFFSHORE WE BUOY 2100      37                N/A     4/ 8   3/ 8
64NM E OF VA BCH 2100   54 54  210/ 12/ 14 1013.2F   5/ 8   5/ 8
DUCK PIER NC     2100   55 36  150/  3/  4 1011.8F
44100 DUCK FRF   2100      39                N/A     4/ 8   2/11
44056 DUCK FRF   2100      38                N/A     3/ 9   2/11
OREGON INLET NC  2100   51 46  190/ 16/ 18 1013.7F
HATTERAS NC      2100   56 46  220/ 10/ 14 1015.3F
CAPE LOOKOUT NC  2100   64     210/ 16/ 22 1015.4F
$$



USA.gov is the U.S. government's official web portal to all federal, state and local government web resources and services.